User: anonymous   Login
Location: Caltech
(34.1382°N, 118.1253°W)
Time: 16:08:36
(UTC-08:00)
Language:

Iridium 62 - Orbit

View from above orbital plane
View from above orbital plane
View from above satellite
View from above satellite

Ground track
Ground track

The orbit data is extracted from the following two-line orbital elements,

1 25285U 98021A   15062.34033188  .00000431  00000-0  14670-3 0  9995
2 25285 086.3972 213.6773 0001913 098.3085 261.8328 14.34214963885070
Epoch (UTC): 03 March 2015 08:10:04
Eccentricity: 0.0001913
inclination: 86.3972°
perigee height: 776 km
apogee height: 779 km
right ascension of ascending node: 213.6773°
argument of perigee: 98.3085°
revolutions per day: 14.34214963
mean anomaly at epoch: 261.8328°
orbit number at epoch: 88507

The dashed part of the orbit path shows where the satellite is in the earth's shadow,  

DLR